| time (UTC) | temp F | wind direction | speed MPH | gust MPH | rain 1hr in | rain 24hr in | rain mn in | humidity % | barometer mb |
| 20260510170005 | 76 | 308 | 2.0 | 7.0 | 0.00 | 0.00 | 0.00 | 73 | 999.0 |
| 20260510160006 | 73 | 187 | 1.0 | 9.0 | 0.00 | 0.00 | 0.00 | 84 | 998.8 |
| 20260510150005 | 72 | 253 | 2.0 | 5.0 | 0.00 | 0.00 | 0.00 | 86 | 998.6 |
| 20260510141502 | 69 | 112 | 0.0 | 8.0 | 0.00 | 0.00 | 0.00 | 89 | 998.4 |
| 20260510140001 | 68 | 160 | 0.0 | 4.0 | 0.00 | 0.00 | 0.00 | 93 | 998.5 |
| 20260510134503 | 66 | 71 | 0.0 | 0.0 | 0.00 | 0.00 | 0.00 | 96 | 998.5 |
| 20260510131502 | 64 | 115 | 0.0 | 0.0 | 0.00 | 0.00 | 0.00 | 100 | 998.2 |
| 20260510130002 | 62 | 70 | 0.0 | 0.0 | 0.00 | 0.00 | 0.00 | 99 | 997.9 |
| 20260510124505 | 62 | 23 | 0.0 | 0.0 | 0.00 | 0.00 | 0.00 | 99 | 997.9 |
| 20260510120001 | 59 | 108 | 0.0 | 4.0 | 0.00 | 0.00 | 0.00 | 99 | 997.2 |
| 20260510110005 | 57 | 93 | 0.0 | 0.0 | 0.00 | 0.00 | 0.00 | 98 | 996.1 |
| 20260510103003 | 57 | 170 | 0.0 | 0.0 | 0.00 | 0.00 | 0.00 | 98 | 995.8 |
| 20260510100003 | 59 | 170 | 0.0 | 0.0 | 0.00 | 0.00 | 0.00 | 99 | 995.6 |
| 20260510073021 | 60 | 181 | 0.0 | 0.0 | 0.00 | 0.00 | 0.00 | 97 | 994.5 |
| 20260510070005 | 61 | 181 | 0.0 | 0.0 | 0.00 | 0.00 | 0.00 | 97 | 994.8 |
| 20260510061502 | 61 | 181 | 0.0 | 0.0 | 0.00 | 0.00 | 0.00 | 94 | 994.7 |
| 20260510041503 | 66 | 289 | 3.0 | 8.0 | 0.00 | 0.00 | 0.00 | 91 | 995.0 |
| 20260510040003 | 66 | 154 | 3.0 | 8.0 | 0.00 | 0.00 | 0.00 | 90 | 995.1 |
| 20260510034503 | 66 | 189 | 0.0 | 4.0 | 0.00 | 0.00 | 0.00 | 89 | 995.3 |
| 20260510030002 | 67 | 188 | 0.0 | 0.0 | 0.00 | 0.00 | 0.00 | 87 | 994.8 |
| 20260510013003 | 70 | 196 | 4.0 | 9.0 | 0.00 | 0.01 | 0.00 | 81 | 993.3 |
| 20260510011517 | 71 | 194 | 5.0 | 7.0 | 0.00 | 0.01 | 0.00 | 79 | 992.9 |
| 20260510010002 | 72 | 310 | 0.0 | 6.0 | 0.00 | 0.01 | 0.00 | 79 | 992.8 |
| 20260510000005 | 76 | 197 | 0.0 | 0.0 | 0.00 | 0.01 | 0.00 | 69 | 992.3 |
| 20260509230003 | 76 | 177 | 4.0 | 6.0 | 0.00 | 0.01 | 0.00 | 66 | 992.1 |
| 20260509221503 | 76 | 210 | 3.0 | 10.0 | 0.00 | 0.01 | 0.00 | 64 | 992.0 |
| 20260509220004 | 77 | 193 | 4.0 | 9.0 | 0.00 | 0.01 | 0.00 | 63 | 991.9 |
| 20260509214502 | 77 | 189 | 1.0 | 7.0 | 0.00 | 0.01 | 0.00 | 61 | 991.8 |
| 20260509211502 | 76 | 216 | 8.0 | 10.0 | 0.00 | 0.01 | 0.00 | 59 | 991.9 |
| 20260509210004 | 77 | 269 | 7.0 | 10.0 | 0.00 | 0.01 | 0.00 | 58 | 991.9 |
| 20260509194508 | 76 | 232 | 6.0 | 11.0 | 0.00 | 0.01 | 0.00 | 58 | 992.4 |